星链-5933 (STARLINK-5933 )

导读 | 豆包AI

STARLINK-5933是美国SpaceX星链互联网星座的通信卫星,于2023年3月17日在美国范登堡空军基地由猎鹰9号火箭发射升空,属于星链Group 4-16批次任务卫星,它运行在近地轨道,作为星链星座的移动基站,为全球提供高速宽带互联网接入服务,支撑星链全球组网覆盖,服务民用通信与潜在特定领域需求。

基本信息
目录编号:
55961
目录名称:
STARLINK-5933
国际标识:
2023-037AZ
轨道中心:
EARTH
卫星名称:
星链-5933
卫星全名:
星链-5933 (STARLINK-5933 )
卫星状态:
在轨 (已飞行1140 天)
发射日期:
2023-03-17 UTC
国别 :
美国 (US)
星等 :
--
轨道信息
数据来源 国际轨道数据 AOE轨道数据
星历时间 2026-04-30T13:12:14+0800
5小时前
查看轨道信息
2026-04-28T05:00:00+0800
2天前
查看轨道信息
半长轴 6950.189km 6950.144km
偏心率 0.0003418 0.0003438
轨道倾角 69.999° 69.998°
近地点辐角 269.527° 273.718°
升交点赤经 134.453° 140.355°
平近点角 90.550° 58.140°
近地点 569.676km 569.617km
远地点 574.428km 574.397km
周期 96.107分钟 96.106分钟
每日圈数 14.983315 14.983459
详细信息
固有亮度:
5
最大亮度:
2.5
卫星平台:
Starlink v1.5
覆盖范围:
全球
运营商:
太空探索技术公司
运营商所在国:
美国
制造商(研发单位):
太空探索技术公司
制造商所在国:
美国
使用方式:
暂无
卫星简介
星链(Starlink)计划是由太空探索技术公司(SpaceX)提出的一个巨型低轨卫星互联网星座项目,计划在2019年至2024年间在太空搭建由约1.2万颗卫星组成的“星链”网络,其中1584颗将部署在地球上空550千米处的近地轨道,并从2020年开始工作。该卫星仍在工作。
2D轨道图
3D轨道图
轨道高度分析图
轨道倾角分析图
轨道综合分析图
查看轨道综合分析图